Location: Lake Fairways Country Club Mobile Home Park
(26.7440°N, 81.9302°W)
Time: 21:31:42
(UTC+00:00)

Daily predictions for brighter satellites

Satellite Brightness Start Highest point End
(mag) Time Altitude Azimuth Time Altitude Azimuth Time Altitude Azimuth
Cosmos 1869 3.8 22:56:15 10° SSW 23:00:10 65° W 23:04:05 10° N
Cosmos 1356 Rocket 3.6 22:56:24 10° S 23:00:30 80° W 23:04:41 10° N
Cosmos 1500 Rocket 4.3 22:57:03 10° NNW 23:01:19 59° W 23:05:32 10° S
Cosmos 2112 Rocket 4.3 22:56:28 10° S 23:01:21 44° ESE 23:06:17 10° NNE
Meteor 2-20 Rocket 4.4 22:57:50 10° S 23:03:55 81° E 23:10:02 10° N
Cosmos 1633 Rocket 4.3 23:02:19 10° NNE 23:05:37 20° E 23:08:54 10° SE
Cosmos 1680 Rocket 3.5 23:02:59 10° S 23:08:07 65° ESE 23:13:17 10° NNE
IRS-1C Rocket 4.3 23:03:15 10° S 23:08:32 82° W 23:13:49 10° NNW
Cosmos 2233 Rocket 4.4 23:02:57 10° N 23:09:12 70° W 23:15:23 10° S
Cosmos 1151 Rocket 3.8 23:06:02 10° SSE 23:09:50 31° E 23:13:40 10° NNE
Cosmos 1328 Rocket 4.2 23:06:48 10° SSE 23:10:50 35° E 23:14:52 10° NNE
Lacrosse 4 Rocket 2.8 23:09:27 10° SW 23:13:16 37° WNW 23:17:03 10° N
Sich 1 3.2 23:11:57 10° N 23:16:11 50° E 23:20:27 10° SSE
COSMO-SKYMED 1 2.6 23:13:41 10° NNE 23:17:59 63° E 23:22:16 10° S
Cosmos 1666 Rocket 4.1 23:14:18 10° NNE 23:18:18 36° E 23:22:15 10° SSE
H-2A R/B 3.0 23:15:44 10° S 23:19:36 76° W 23:23:26 10° NNW
CZ-4 R/B 2.5 23:16:26 10° SE 23:19:45 23° ENE 23:23:03 10° NNE
CCE 1 Rocket 3.9 23:16:42 10° W 23:20:48 70° N 23:26:23 13° E
SL-16 R/B 3.8 23:18:47 10° SE 23:21:17 13° E 23:22:21 12° E
Hubble Space Telescope 2.5 23:18:24 10° SSW 23:21:34 21° SSE 23:24:30 11° ESE
CORIOLIS 4.2 23:16:39 10° SSE 23:22:02 89° WSW 23:27:28 10° NNW
Cosmos 2219 3.3 23:17:19 10° NNW 23:22:57 84° WSW 23:28:34 10° SSE
Cosmos 1980 Rocket 2.2 23:20:11 10° S 23:25:45 66° ESE 23:31:22 10° NNE
Cosmos 2322 Rocket 3.8 23:28:01 10° SE 23:30:30 13° E 23:30:30 13° E
CZ-3C R/B 2.7 23:26:53 10° W 23:32:49 33° SSW 23:36:11 10° SE
Cosmos 1891 Rocket 4.4 23:28:01 10° N 23:34:15 67° E 23:40:21 10° SSE
Cosmos 1464 Rocket 3.9 23:28:13 10° N 23:34:19 67° E 23:40:23 10° SSE
YAOGAN 1 3.4 23:31:07 10° SE 23:34:45 27° ENE 23:38:25 10° NNE
Cosmos 2297 Rocket 2.1 23:34:55 10° NNW 23:40:35 87° ENE 23:46:14 10° SSE
Cosmos 2227 Rocket 2.1 23:35:03 10° NNW 23:40:43 80° ENE 23:46:21 10° SSE
Cosmos 1607 3.9 23:35:26 10° NNW 23:41:41 77° ENE 23:47:59 10° SSE
Cosmos 1072 Rocket 4.5 23:37:54 10° N 23:44:04 89° W 23:50:19 10° S
Cosmos 1933 3.6 23:41:35 10° SSE 23:45:28 44° E 23:48:10 18° NNE
USA 116 4.3 23:41:43 10° NNE 23:46:40 87° ESE 23:51:57 10° SSW
FengYun 1-2 T 4.1 23:41:13 10° SSE 23:46:41 66° ENE 23:52:08 10° N
Cosmos 1470 Rocket 4.1 23:45:16 10° NNE 23:49:22 35° E 23:53:27 10° SSE
CZ-3 Stage 3 2.1 23:50:07 10° WNW 23:51:39 32° NNW 23:51:39 32° NNW
Cosmos 1633 3.3 23:51:56 10° NNW 23:55:29 54° W 23:59:01 10° S
